Tracking 22124 objects as of 23-Jan-2021
HD Live streaming from Space Station
objects crossing your sky now

SL-14 DEB

Track SL-14 DEB now!
10-day predictions


NORAD ID: 19232
Int'l Code: 1978-100AB
Perigee: 1,680.1 km
Apogee: 1,994.0 km
Inclination: 82.3 °
Period: 123.3 minutes
Semi major axis: 8208 km
RCS: 0.0463 m2 (small)
Launch date: October 26, 1978
Source: Commonwealth of Independent States (former USSR) (CIS)
Launch site: PLESETSK MISSILE AND SPACE COMPLEX (PKMTR)

Note: This is SATELLITE DEBRIS
aabbcc
Your satellite tracking list
Your tracking list is empty




NASA's NSSDC Master Catalog

Two Line Element Set (TLE):
1 19232U 78100AB  21022.76043507  .00000036  00000-0  47527-3 0  9999
2 19232  82.3313 270.8496 0191196  72.7761 352.7076 11.67458432392984
Source of the keplerian elements: AFSPC